Other Public Products
Issued by NWS Charleston, SC

Current Version | Previous Version | Graphics & Text | Print | Product List | Glossary On
Versions: 1 2 3 4 5 6 7 8 9 10 11 12 13 14 15 16 17 18 19 20 21 22 23 24 25 26 27 28 29 30 31 32 33 34 35 36 37 38 39 40 41 42 43 44 45 46 47 48 49 50
041
FPUS82 KCHS 230727
OPUCHS

TEST...KCHS/KSAV Gateway Observations...TEST
National Weather Service Charleston SC
300 AM EDT SUN APR 23 2017

NOTE: "fair" indicates few or no clouds below 12,000 feet with no
significant weather and/or obstructions to visibility.

SCZ050-WAZ558-NCZ071-TXZ119-213-PAZ071-DCZ001-FLZ074-172-MI076-
NYZ176-178-MAZ016-IL014-TNZ027-NJZ106-GAZ044-MD014-230800-

...Gateway Observations for Charleston International...

CITY           SKY/WX    TMP DP  RH WIND       PRES   REMARKS
Chas Airport   PTCLDY    71  68  90 SW9       29.87F
Seattle        PTCLDY    48  45  89 S8        29.97S
Charlotte      LGT RAIN  58  54  86 NE10      29.93F
Dallas DFW     CLEAR     53  44  71 NW12      30.13F
Dallas Love    CLEAR     53  43  68 NW9       30.14F
Philladelphia  CLOUDY    46  37  71 N8        30.05F
Wash National  CLOUDY    53  46  77 N12       30.05R
Baltimore      CLOUDY    49  46  90 N6        30.05S
Miami          CLOUDY    77  72  84 SE14G21   29.81F
Detroit        CLEAR     42  35  76 CALM      30.13F
Newark         PTCLDY    48  37  65 N7        30.03S
Laguardia      PTCLDY    50  38  63 NW3       30.03R
J F K          MOCLDY    49  38  65 N10       30.04R
Boston Logan   MOCLDY    44  41  89 NW9       29.99F
Ft. Lauderdale HVY RAIN  73  71  93 E15       29.83F FOG
Chicago O`Hare CLEAR     40  27  59 CALM      30.13F
Chicago Midway CLEAR     45  30  55 CALM      30.14F
Houston Bush   MOCLDY    59  46  62 N14G23    30.08S
Houston Hobby  MOCLDY    60  45  57 N17       30.06F
Nashville      DRIZZLE   51  49  92 N12       29.86F FOG
Atlanta        CLOUDY    65  58  78 E7        29.84F

$$

GAZ044-118-TXZ119-213-NCZ071-DCZ001-MDZ014-506-PAZ021-071-NJZ106-
NYZ176-178-MAZ106-OHZ011-021-055-MIZ076-KYZ091-ILZ014-INZ047-
MNZ060-ONZ431-230800-

...Gateway Observations for Savannah International...

CITY           SKY/WX    TMP DP  RH WIND       PRES   REMARKS
Savannah Arpt  PTCLDY    71  66  84 S10       29.87F
Atlanta        CLOUDY    65  58  78 E7        29.84F
Charlotte      LGT RAIN  58  54  86 NE10      29.93F
Dallas DFW     CLEAR     53  44  71 NW12      30.13F
Houston Bush   MOCLDY    59  46  62 N14G23    30.08S
Wash National  CLOUDY    53  46  77 N12       30.05R
Wash Dulles    CLOUDY    50  46  86 N6        30.05S
Baltimore      CLOUDY    49  46  90 N6        30.05S
Philadelphia   CLOUDY    46  37  71 N8        30.05F
Newark         PTCLDY    48  37  65 N7        30.03S
Laguardia      PTCLDY    50  38  63 NW3       30.03R
J F K          MOCLDY    49  38  65 N10       30.04R
Boston         MOCLDY    44  41  89 NW9       29.99F
Pittsburg      CLEAR     43  32  65 NE7       30.08S
Akron          CLEAR     39  33  79 N9        30.09F WCI  33
Cleveland      CLEAR     41  34  76 CALM      30.14F
Cincinnati     CLEAR     45  35  68 NE15      30.03F
Columbus       CLEAR     39  35  84 NE3       30.06F
Detroit        CLEAR     42  35  76 CALM      30.13F
Chicago O`Hare CLEAR     40  27  59 CALM      30.13F
Minneapolis    CLEAR     54  36  50 SW7       30.07F
Indianapolis   CLEAR     45  30  55 NE10      30.07F
Toronto Canada CLEAR     39  28  65 W3        30.09F

$$




USA.gov is the U.S. government's official web portal to all federal, state and local government web resources and services.